When you browse on this site, cookies collect data to enhance your experience and personalize the content and advertising you see.
Visit our Privacy Policy to learn more. By continuing to use the site, you agree to this use of cookies and data.

Hourly Weather Dori

Today, 22 September, Tuesday

Time Temperature Precipitation Wind Pressure Humidity
00:00 +31°C° 0.1 mm 3 mps 734 mmHg 58%
01:00 +32°C° 0 mm 4 mps 734 mmHg 59%
02:00 +30°C° 0 mm 4 mps 734 mmHg 61%
03:00 +30°C° 0 mm 5 mps 733 mmHg 62%
04:00 +30°C° 0 mm 5 mps 734 mmHg 65%
05:00 +29°C° 0 mm 4 mps 734 mmHg 67%
06:00 +29°C° 0 mm 4 mps 734 mmHg 70%
07:00 +30°C° 0 mm 4 mps 735 mmHg 65%
08:00 +32°C° 0 mm 5 mps 735 mmHg 59%
09:00 +34°C° 0 mm 5 mps 736 mmHg 54%
10:00 +35°C° 0 mm 4 mps 735 mmHg 48%
11:00 +36°C° 0 mm 3 mps 735 mmHg 42%
12:00 +38°C° 0 mm 2 mps 735 mmHg 36%
13:00 +38°C° 0 mm 3 mps 734 mmHg 34%
14:00 +39°C° 0 mm 3 mps 733 mmHg 31%
15:00 +41°C° 0 mm 4 mps 733 mmHg 28%
16:00 +40°C° 0 mm 4 mps 733 mmHg 31%
17:00 +38°C° 0 mm 4 mps 733 mmHg 33%
18:00 +38°C° 0 mm 4 mps 733 mmHg 35%
19:00 +36°C° 0 mm 5 mps 733 mmHg 42%
20:00 +35°C° 0 mm 5 mps 734 mmHg 48%
21:00 +33°C° 0 mm 5 mps 735 mmHg 55%
22:00 +32°C° 0 mm 5 mps 735 mmHg 58%
23:00 +30°C° 0 mm 4 mps 734 mmHg 62%

Tomorrow, 23 September, Wednesday

Time Temperature Precipitation Wind Pressure Humidity
00:00 +29°C° 0 mm 4 mps 734 mmHg 65%
01:00 +29°C° 0 mm 3 mps 734 mmHg 64%
02:00 +29°C° 0 mm 3 mps 734 mmHg 63%
03:00 +29°C° 0 mm 3 mps 734 mmHg 62%
04:00 +29°C° 0 mm 3 mps 734 mmHg 62%
05:00 +29°C° 0 mm 2 mps 734 mmHg 62%
06:00 +29°C° 0 mm 2 mps 734 mmHg 62%
07:00 +30°C° 0 mm 2 mps 735 mmHg 58%
08:00 +31°C° 0 mm 2 mps 735 mmHg 54%
09:00 +33°C° 0 mm 3 mps 736 mmHg 50%
10:00 +35°C° 0 mm 3 mps 735 mmHg 44%
11:00 +37°C° 0 mm 3 mps 735 mmHg 38%
12:00 +40°C° 0 mm 4 mps 735 mmHg 32%
13:00 +40°C° 0 mm 4 mps 734 mmHg 30%
14:00 +41°C° 0 mm 4 mps 733 mmHg 28%
15:00 +41°C° 0 mm 4 mps 733 mmHg 27%
16:00 +40°C° 0 mm 3 mps 733 mmHg 28%
17:00 +39°C° 0 mm 3 mps 733 mmHg 29%
18:00 +39°C° 0 mm 3 mps 733 mmHg 31%
19:00 +37°C° 0 mm 4 mps 733 mmHg 36%
20:00 +36°C° 0 mm 4 mps 734 mmHg 41%
21:00 +35°C° 0 mm 5 mps 734 mmHg 47%
22:00 +34°C° 0 mm 5 mps 734 mmHg 50%
23:00 +34°C° 0 mm 4 mps 734 mmHg 53%

Day after tomorrow, 24 September, Thursday

Time Temperature Precipitation Wind Pressure Humidity
00:00 +33°C° 0 mm 4 mps 734 mmHg 56%
01:00 +32°C° 0 mm 4 mps 734 mmHg 58%
02:00 +32°C° 0 mm 5 mps 734 mmHg 59%
03:00 +32°C° 0 mm 5 mps 733 mmHg 61%
04:00 +30°C° 0 mm 4 mps 734 mmHg 61%
05:00 +30°C° 0 mm 4 mps 734 mmHg 62%
06:00 +30°C° 0 mm 3 mps 734 mmHg 63%
07:00 +32°C° 0 mm 4 mps 735 mmHg 59%
08:00 +33°C° 0 mm 4 mps 735 mmHg 55%
09:00 +34°C° 0 mm 5 mps 736 mmHg 52%
10:00 +36°C° 0 mm 5 mps 735 mmHg 47%
11:00 +37°C° 0 mm 4 mps 735 mmHg 42%
12:00 +40°C° 0 mm 4 mps 734 mmHg 38%
13:00 +39°C° 0 mm 3 mps 734 mmHg 34%
14:00 +40°C° 0 mm 3 mps 733 mmHg 29%
15:00 +41°C° 0 mm 2 mps 732 mmHg 25%
16:00 +41°C° 0 mm 2 mps 732 mmHg 26%
17:00 +40°C° 0 mm 2 mps 732 mmHg 26%
18:00 +40°C° 0 mm 1 mps 732 mmHg 26%
19:00 +39°C° 0 mm 2 mps 732 mmHg 28%
20:00 +38°C° 0 mm 2 mps 732 mmHg 29%
21:00 +38°C° 0 mm 3 mps 733 mmHg 30%
22:00 +37°C° 0 mm 4 mps 733 mmHg 36%
23:00 +36°C° 0 mm 5 mps 733 mmHg 42%

25 September, Friday

Time Temperature Precipitation Wind Pressure Humidity
00:00 +35°C° 0 mm 5 mps 733 mmHg 48%
01:00 +34°C° 0 mm 5 mps 732 mmHg 52%
02:00 +33°C° 0 mm 5 mps 732 mmHg 55%
03:00 +32°C° 0 mm 5 mps 732 mmHg 58%
04:00 +32°C° 0 mm 5 mps 733 mmHg 61%
05:00 +32°C° 0 mm 5 mps 733 mmHg 63%
06:00 +30°C° 0 mm 5 mps 733 mmHg 65%
07:00 +32°C° 0 mm 6 mps 734 mmHg 61%
08:00 +34°C° 0 mm 6 mps 735 mmHg 57%
09:00 +35°C° 0 mm 7 mps 735 mmHg 53%
10:00 +36°C° 0 mm 7 mps 735 mmHg 47%
11:00 +39°C° 0 mm 6 mps 734 mmHg 42%
12:00 +40°C° 0 mm 6 mps 734 mmHg 37%
13:00 +41°C° 0 mm 6 mps 733 mmHg 34%
14:00 +41°C° 0 mm 5 mps 733 mmHg 31%
15:00 +42°C° 0 mm 5 mps 732 mmHg 28%
16:00 +41°C° 0 mm 4 mps 732 mmHg 30%
17:00 +40°C° 0 mm 4 mps 732 mmHg 32%
18:00 +40°C° 0 mm 4 mps 732 mmHg 34%
19:00 +39°C° 0 mm 5 mps 732 mmHg 39%
20:00 +37°C° 0 mm 5 mps 733 mmHg 44%
21:00 +35°C° 0 mm 6 mps 733 mmHg 50%
22:00 +35°C° 0 mm 6 mps 733 mmHg 53%
23:00 +34°C° 0 mm 6 mps 733 mmHg 57%

26 September, Saturday

Time Temperature Precipitation Wind Pressure Humidity
00:00 +33°C° 0 mm 6 mps 733 mmHg 61%
01:00 +32°C° 0 mm 6 mps 732 mmHg 62%
02:00 +32°C° 0 mm 6 mps 732 mmHg 63%
03:00 +30°C° 0 mm 5 mps 732 mmHg 64%
04:00 +30°C° 0 mm 5 mps 732 mmHg 65%
05:00 +30°C° 0 mm 6 mps 732 mmHg 66%
06:00 +29°C° 0 mm 6 mps 732 mmHg 67%
07:00 +30°C° 0 mm 6 mps 733 mmHg 63%
08:00 +33°C° 0 mm 7 mps 734 mmHg 58%
09:00 +34°C° 0 mm 7 mps 734 mmHg 54%
10:00 +35°C° 0 mm 7 mps 734 mmHg 49%
11:00 +38°C° 0 mm 6 mps 734 mmHg 44%
12:00 +39°C° 0 mm 6 mps 733 mmHg 39%
13:00 +40°C° 0 mm 6 mps 733 mmHg 37%
14:00 +40°C° 0 mm 6 mps 732 mmHg 35%
15:00 +41°C° 0 mm 5 mps 731 mmHg 33%
16:00 +40°C° 0 mm 5 mps 731 mmHg 34%
17:00 +38°C° 0 mm 4 mps 731 mmHg 35%
18:00 +38°C° 0 mm 4 mps 731 mmHg 36%
19:00 +37°C° 0 mm 4 mps 732 mmHg 39%
20:00 +36°C° 0 mm 5 mps 732 mmHg 43%
21:00 +34°C° 0 mm 6 mps 732 mmHg 47%
22:00 +34°C° 0.1 mm 6 mps 732 mmHg 49%
23:00 +33°C° 0.1 mm 6 mps 732 mmHg 51%

27 September, Sunday

Time Temperature Precipitation Wind Pressure Humidity
00:00 +32°C° 0.1 mm 6 mps 732 mmHg 53%
01:00 +32°C° 0 mm 6 mps 732 mmHg 53%
02:00 +30°C° 0 mm 5 mps 732 mmHg 53%
03:00 +30°C° 0 mm 5 mps 732 mmHg 53%
04:00 +29°C° 0.6 mm 6 mps 732 mmHg 56%
05:00 +29°C° 0.6 mm 6 mps 732 mmHg 58%
06:00 +28°C° 0.6 mm 7 mps 732 mmHg 61%
07:00 +29°C° 0 mm 6 mps 733 mmHg 58%
08:00 +32°C° 0 mm 6 mps 733 mmHg 55%
09:00 +33°C° 0 mm 6 mps 734 mmHg 52%
10:00 +35°C° 0 mm 6 mps 733 mmHg 48%
11:00 +36°C° 0 mm 5 mps 733 mmHg 44%
12:00 +37°C° 0 mm 5 mps 733 mmHg 39%
13:00 +39°C° 0 mm 5 mps 732 mmHg 37%
14:00 +40°C° 0 mm 4 mps 732 mmHg 35%
15:00 +40°C° 0 mm 4 mps 731 mmHg 33%
16:00 +39°C° 0 mm 3 mps 731 mmHg 34%
17:00 +38°C° 0 mm 3 mps 731 mmHg 34%
18:00 +38°C° 0 mm 3 mps 731 mmHg 34%
19:00 +37°C° 0 mm 4 mps 732 mmHg 38%
20:00 +36°C° 0 mm 4 mps 732 mmHg 41%
21:00 +36°C° 0 mm 5 mps 733 mmHg 44%
22:00 +34°C° 0.4 mm 5 mps 733 mmHg 47%
23:00 +33°C° 0.4 mm 5 mps 733 mmHg 50%
Show more